False Pass, AK

10:38 AM HDT on July 22, 2017 (GMT -0900)
False Pass

Weather History for PAKF - October, 2013

Change the Weather History Date:

Tuesday, October 29, 2013

  Actual Average (PACD) Record (PACD)
Temperature  
Mean Temperature 44 °F -  
Max Temperature 42 °F 41 °F 53 °F (1971)
Min Temperature 41 °F 31 °F 13 °F (1976)
Degree Days  
Heating Degree Days 21    
Moisture  
Dew Point 41 °F    
Average Humidity 89    
Maximum Humidity 100    
Minimum Humidity 76    
Precipitation  
Precipitation 0.26 in - - ()
Sea Level Pressure  
Sea Level Pressure 29.35 in    
Wind  
Wind Speed 8 mph (SSE)    
Max Wind Speed 21 mph    
Max Gust Speed 29 mph    
Visibility 9 miles    
Events Rain    
Averages and records for this station are not official NWS values.
T = Trace of Precipitation, MM = Missing Value Source: NWS Daily Summary

Daily Weather History Graph

Daily Weather History Graph

Search for Another Location

Airport or City:

Trip Planner

Search our weather history database for the weather conditions in past years. The results will help you decide how hot, cold, wet, or windy it might be!

Date:

Astronomy

Oct. 29, 2013 Rise Set
Actual Time 8:51 AM HDT 6:21 PM HDT
Civil Twilight 8:13 AM HDT 6:59 PM HDT
Nautical Twilight 7:31 AM HDT 7:42 PM HDT
Astronomical Twilight 6:49 AM HDT 8:24 PM HDT
Moon 3:08 AM HDT (10/29) 4:22 PM HDT (10/29)
Length of Visible Light 10h 46m
Length of Day
9h 30m
Waning Crescent, 23% of the Moon is Illuminated
Oct 29
Waning Crescent
Nov 3
New
Nov 9
First Quarter
Nov 17
Full
Nov 25
Last Quarter

Hourly Weather History & Observations

Time (HDT) Temp. Windchill Dew Point Humidity Pressure Visibility Wind Dir Wind Speed Gust Speed Precip Events Conditions
12:01 AM 44.1 °F 37.7 °F 41.0 °F 89% 29.40 in 4.0 mi SSE 12.7 mph 18.4 mph 0.03 in Rain Light Rain
12:21 AM 44.6 °F 38.1 °F 41.0 °F 87% 29.39 in 10.0 mi SSE 13.8 mph 20.7 mph 0.00 in   Overcast
1:01 AM 44.6 °F 40.2 °F 42.8 °F 93% 29.39 in 10.0 mi SSE 8.1 mph - 0.00 in   Overcast
1:09 AM 44.6 °F 40.2 °F 42.8 °F 93% 29.39 in 10.0 mi SE 8.1 mph - 0.00 in   Overcast
1:28 AM 44.6 °F 39.7 °F 42.8 °F 93% 29.38 in 10.0 mi SE 9.2 mph - 0.00 in Rain Light Rain
1:41 AM 44.6 °F 39.7 °F 42.8 °F 93% 29.38 in 10.0 mi South 9.2 mph - 0.00 in   Overcast
2:01 AM 44.6 °F 39.7 °F 41.0 °F 87% 29.38 in 10.0 mi SSE 9.2 mph - 0.00 in   Overcast
2:09 AM 44.6 °F 39.7 °F 41.0 °F 87% 29.37 in 7.0 mi SSE 9.2 mph - 0.02 in Rain Rain
2:45 AM 44.1 °F 39.5 °F 42.1 °F 93% 29.64 in 10.0 mi ESE 8.1 mph - 0.03 in Rain Light Rain
2:55 AM 44.6 °F 40.2 °F 42.8 °F 93% 29.36 in 9.0 mi SE 8.1 mph - 0.01 in Rain Light Rain
3:01 AM 44.1 °F 40.1 °F 42.1 °F 93% 29.64 in 10.0 mi SE 6.9 mph - 0.01 in Rain Light Rain
3:59 AM 44.6 °F 40.7 °F 42.8 °F 93% 29.35 in 9.0 mi ESE 6.9 mph - 0.01 in Rain Light Rain
4:01 AM 44.1 °F 40.8 °F 42.1 °F 93% 29.62 in 9.0 mi SE 5.8 mph - 0.01 in Rain Light Rain
4:33 AM 44.6 °F 40.2 °F 42.8 °F 93% 29.34 in 10.0 mi SE 8.1 mph - 0.00 in Rain Light Rain
4:44 AM 42.8 °F 38.6 °F 42.8 °F 100% 29.33 in 10.0 mi ESE 6.9 mph - 0.00 in Rain Light Rain
4:53 AM 42.8 °F 38.6 °F 41.0 °F 93% 29.33 in 9.0 mi East 6.9 mph - 0.00 in Rain Light Rain
5:01 AM 43.0 °F 38.8 °F 42.1 °F 97% 29.61 in 10.0 mi East 6.9 mph - 0.00 in Rain Light Rain
5:09 AM 42.8 °F 38.6 °F 42.8 °F 100% 29.32 in 10.0 mi ESE 6.9 mph - 0.00 in Rain Light Rain
5:45 AM 42.8 °F 39.3 °F 42.8 °F 100% 29.32 in 5.0 mi East 5.8 mph - 0.05 in Rain Light Rain
6:01 AM 43.0 °F 38.8 °F 42.1 °F 97% 29.60 in 6.0 mi ESE 6.9 mph - 0.06 in Rain Light Rain
6:10 AM 42.8 °F 39.3 °F 41.0 °F 93% 29.32 in 7.0 mi East 5.8 mph - 0.00 in Rain Light Rain
6:39 AM 42.8 °F 41.1 °F 41.0 °F 93% 29.32 in 10.0 mi SW 3.5 mph - 0.01 in Rain Light Rain
7:01 AM 43.0 °F 39.5 °F 41.0 °F 93% 29.59 in 9.0 mi ESE 5.8 mph - 0.01 in Rain Light Rain
8:01 AM 42.1 °F 38.4 °F 41.0 °F 96% 29.57 in 10.0 mi South 5.8 mph - 0.01 in Rain Light Rain
8:16 AM 42.8 °F 38.6 °F 41.0 °F 93% 29.29 in 10.0 mi SSW 6.9 mph - 0.00 in   Overcast
10:01 AM 43.0 °F - 39.9 °F 89% 29.29 in 10.0 mi Calm Calm - N/A   Unknown
10:30 AM 42.8 °F - 41.0 °F 93% 29.29 in 10.0 mi Calm Calm - N/A   Overcast
11:01 AM 44.1 °F - 39.9 °F 85% 29.28 in 10.0 mi North - - N/A   Overcast
12:01 PM 44.1 °F - 41.0 °F 89% 29.27 in 10.0 mi Calm Calm - N/A   Overcast
1:01 PM 45.0 °F - 41.0 °F 86% 29.25 in 10.0 mi Calm Calm - N/A   Overcast
2:01 PM 45.0 °F 41.2 °F 39.9 °F 82% 29.23 in 10.0 mi West 6.9 mph - N/A   Overcast
2:20 PM 44.6 °F 40.2 °F 42.8 °F 93% 29.23 in 10.0 mi North 8.1 mph - N/A   Overcast
2:35 PM 44.6 °F 42.2 °F 41.0 °F 87% 29.22 in 10.0 mi North 4.6 mph - N/A   Overcast
3:01 PM 46.0 °F 43.1 °F 41.0 °F 83% 29.21 in 10.0 mi NW 5.8 mph - N/A   Overcast
4:01 PM 44.1 °F 42.5 °F 39.9 °F 85% 29.21 in 8.0 mi WNW 3.5 mph - 0.01 in Rain Light Rain
5:01 PM 44.1 °F 42.5 °F 39.9 °F 85% 29.20 in 10.0 mi Variable 3.5 mph - 0.00 in Rain Light Rain
5:34 PM 44.6 °F 42.2 °F 37.4 °F 76% 29.20 in 10.0 mi Variable 4.6 mph - 0.00 in Rain Light Rain
6:01 PM 44.1 °F - 39.0 °F 82% 29.20 in 10.0 mi Calm Calm - 0.00 in Rain Light Rain
6:47 PM 42.8 °F 39.3 °F 37.4 °F 81% 29.20 in 6.0 mi NW 5.8 mph 16.1 mph 0.03 in Rain Rain
7:01 PM 42.8 °F 35.8 °F 37.4 °F 81% 29.20 in 9.0 mi West 13.8 mph 19.6 mph 0.04 in Rain Light Rain
8:01 PM 42.1 °F 33.9 °F 37.0 °F 82% 29.20 in 8.0 mi West 17.3 mph 25.3 mph 0.05 in Rain Light Rain
8:13 PM 42.8 °F 34.0 °F 37.4 °F 81% 29.20 in 9.0 mi West 20.7 mph 28.8 mph 0.00 in Rain Light Rain
9:01 PM 42.1 °F 37.7 °F 37.0 °F 82% 29.21 in 10.0 mi West 6.9 mph 17.3 mph 0.03 in Rain Light Rain
10:01 PM 42.1 °F 35.2 °F 37.0 °F 82% 29.50 in 8.0 mi West 12.7 mph 17.3 mph 0.02 in Rain Light Rain
10:25 PM 42.8 °F 38.6 °F 35.6 °F 76% 29.23 in 8.0 mi Variable 6.9 mph - 0.01 in Rain Light Rain
11:01 PM 41.0 °F 39.0 °F 36.0 °F 82% 29.52 in 10.0 mi NW 3.5 mph - 0.02 in Rain Light Rain